Tracking 20942 objects as of 13-Jul-2020
HD Live streaming from Space Station
objects crossing your sky now

THOR ABLESTAR DEB

Track THOR ABLESTAR DEB now!
10-day predictions


NORAD ID: 21986
Int'l Code: 1961-015MM
Perigee: 813.7 km
Apogee: 954.7 km
Inclination: 66.9 °
Period: 102.5 minutes
Semi major axis: 7255 km
RCS: 0.0015 m2 (small)
Launch date: June 29, 1961
Source: United States (US)
Launch site: AIR FORCE EASTERN TEST RANGE (AFETR)

Note: This is SATELLITE DEBRIS
aabbcc
Your satellite tracking list
Your tracking list is empty




NASA's NSSDC Master Catalog

Two Line Element Set (TLE):
1 21986U 61015MM  20194.94041682 -.00000017 +00000-0 +37037-4 0  9992
2 21986 066.8756 166.8207 0097167 178.6926 213.6601 14.04839641448639
Source of the keplerian elements: AFSPC